"Pseudo-MPEC" for ZTF03gL

Created 2019 Jun 19 18:07:34 UT using Find_Orb

Click here for an explanation of pseudo-MPECs

 
 Astrometry: 
     ZTF03gL  C2019 06 07i-i@L\NRG[ydTg5Y)7f0'![F3#pW0_Qff4;@@bV?'0`CDT/`k;ykF52
     ZTF03gL  C2019 06 07ugnkD%+ukK/`kOIGIP2cFUaT?Gr0L!79I]]NB2tmBZ8K]:NgLl4[F52
     ZTF03gL  C2019 06 09SBT!odqA?/ZCFqqB)E5KZ'AstrometryQ=AY_GKs]%o7ZdVQ_O:?F51
     ZTF03gL  C2019 06 09r:6D\@iKEISPAN0v5Sredacted;3:HJNgZL0tF\5\qVJCVMP`n$JF51
     ZTF03gL  C2019 06 09tT`'gTPl)qLcC6]CsrZSD6WAF+q-yOWN*qUKL_q/VxrT4/wa(WoHF51
     ZTF03gL  C2019 06 09LGHWrU1Gg_Q8nWdTNMdLE;Up7'Kq)xR/6a@7(YiAN_\N3FU2?pgiF51
     ZTF03gL  C2019 06 10.21400617 11 18.94 +25 43 14.0    ~6AJq 19.56gUNEOCPI41
     ZTF03gL  C2019 06 10.21435317 11 18.84 +25 43 31.7    ~6AJq 19.56gUNEOCPI41
     ZTF03gL  C2019 06 10.27682017 10 46.12 +26 37 45.9    ~6C4q 19.24RUNEOCPI41
     ZTF03gL  C2019 06 10.27716717 10 45.80 +26 38 06.0    ~6A8b 19.24RUNEOCPI41
     ZTF03gL  C2019 06 10.29740317 10 34.65 +26 55 55.5    ~6AHq 19.79RUNEOCPI41
     ZTF03gL  C2019 06 10.29775017 10 34.51 +26 56 08.7    ~6AHq 19.79RUNEOCPI41
     ZTF03gL  C2019 06 10.31372817 10 25.20 +27 10 27.8    ~6A8b 18.69RUNEOCPI41
     ZTF03gL  C2019 06 10.31407517 10 24.96 +27 10 47.4    ~6A8b 18.69RUNEOCPI41
     ZTF03gL  C2019 06 10.34043017 10 09.65 +27 34 21.1    ~6AJq 20.45gUNEOCPI41
     ZTF03gL  C2019 06 10.34077717 10 09.62 +27 34 32.0    ~6AJq 20.45gUNEOCPI41
     ZTF03gL KC2019 06 10LXJxOTPm`9]!4u*GKurd1Fw2!0QKQtx0DP_R-8sD:-sxU7#*cg0?K88
     ZTF03gL KC2019 06 10Ne)Y7ZSiDQ?**Ekvr5j/h[k?dY[NRc9[v*o)s:[lx?ki;d$,j3N%K88
     ZTF03gL KC2019 06 10h@DRSZ+ws@tX5W+O8xM1i'Sugwb;P[!\h[sX6m,H)dS2V+`hOVo(K88
     ZTF03gL KC2019 06 10+\ZnQ\x37[Urw)+gv7i%!w8X(RWbI:H_Np60n#H)Yt[b%^=lriV*K88
     ZTF03gL KC2019 06 11Kb*]$SQL8%B)ik,ktefUME2fb$*5G:?LVJ/ZW:aJ?]S/N_I%@X,fH21
     ZTF03gL KC2019 06 11jr(HV=Ip7PLa9arTBs_O\4i]7nWICnclickM)C@TZpu/An=Cj7)@H21
     ZTF03gL KC2019 06 11Mq/0.WBWWeK^kBhiB#fyuxGmAk*$eWONB7+I=]N!OJCrfeuRBN(@V01
     ZTF03gL KC2019 06 11Ou;uYt`jIif;t*dkh8mqcjCO0r\RGdLP9g%r;fbeU))3Du!\BLy2V01
     ZTF03gL KC2019 06 11o)BheNi)sBBy:]eVt_\WsRN=NUaJE]ldf[m@U5b.)s`VGy9$Ls1UL01
     ZTF03gL KC2019 06 11j90a4,8'KXxq.;%7;RQqSQd2W8w2(6Bik1P]8U;Ts9[T_sIl$uE/L01
     ZTF03gL IC2019 06 1191gQ.y4EvWj-aMyhSj[YKjsx9e#hd2(vy3*S!))3s6NF5EhB5JV:L01
     ZTF03gL KC2019 06 12:O9-:pv$(X\E_i!Br4bQa+sP/OkI$^0rT`w6QLj;here?3g-OOIE104
     ZTF03gL KC2019 06 121PTa9),bbjM4D315for,=aJ-#C@DPexplanationItSITS.Zmlf/104
     ZTF03gL KC2019 06 12.W\BUJ.jVKRZ2/W-Sa0':Y\YgD9ZjYiRjuFP]j`.vtt+Q[9ll@,%104
     ZTF03gL KC2019 06 12V?lU2ylpR\PM\ZdMtrIHF/y(HkNBQSyq.)-OP_2fn:Pu4E\I.5+V104
     ZTF03gL KC2019 06 12ZYRffQ]f_@mGpC,\$s*r#a%C)33hCGGu3g'JT@k!g;xtQVG[O$a6H21
     ZTF03gL KC2019 06 12*f3gSFUPHVL[D-,RMQSoF+CwbD27HtM-:`tna*x/`Jj^1P69[C.[H21

Station data:
(104) San Marcello Pistoiese  (N44.063037 E10.804200)  Italy. 0.40-m f/5
   reflector.
(F51) Pan-STARRS 1, Haleakala  (N20.707235 W156.255910)  US/Hawaii.
   Observers N. Primak, A. Schultz, S. Watters, J. Thiel, T. Goggia. Measurer
   PS1 Science Consortium. 1.8-m Ritchey-Chrétien + CCD.
(F52) Pan-STARRS 2, Haleakala  (N20.707384 W156.255910)  US/Hawaii. 1.8-m
   Ritchey-Chrétien + CCD.
(H21) Astronomical Research Observatory, Westfield  (N39.483057 W87.968270)
   US/Illinois. 0.76-m f/3.0 astrograph + CCD.
(I41) Palomar Mountain--ZTF  (N33.357340 W116.859780)  US/California. 1.2-m
   f/2.44 Oschin Schmidt + CCD.
(K88) GINOP-KHK, Piszkéstető  (N47.917622 E19.893600)  Hungary.  Observer K.
   Sárneczky. 0.60-m Schmidt + CCD.
(L01) Višnjan Observatory, Tičan  (N45.290900 E13.749300)  Croatia.
   Observers K. Korlević, E. Pettarin. Measurer E. Pettarin. 1.0-m f/2.9
   reflector + CCD.
(V01) Mountainville Observatory, Alpine  (N40.448904 W111.760890)  US/Utah.

Orbital elements:  ZTF03gL
   Perihelion 2019 Aug 14.861151 +/- 0.0271 TT = 20:40:03 (JD 2458710.361151)
Epoch 2019 Jun 12.0 TT = JDT 2458646.5   Earth MOID: 0.0117   Ve: 0.0158
M 309.27664213 +/- 0.050            Ma: 0.0383                AutoNEOCP
n   0.79427566 +/- 0.000448         Peri.  234.76381 +/- 0.015
a   1.15475152 +/- 0.000435         Node   122.10328 +/- 0.013
e   0.3992889 +/- 0.000432          Incl.    1.24538 +/- 0.0010
P   1.24/453.23d           H 26.1   G  0.15   U  7.6  
q 0.69367203 +/- 0.000238    Q 1.61583101 +/- 0.00111
From 33 observations 2019 June 7-12; mean residual 1".48
Residuals in arcseconds: 
190607 F52  .03+  .22+    190610 I41  2.4+  6.3-    190611 V01  .42-  .18+    
190607 F52  .31+  .05-    190610 I41  .18-  1.3+    190611 V01  .41+  .01-    
190609 F51  .25+  .62-    190610 I41  .72-  2.4+    190611 L01  .12-  .43+    
190609 F51  .00   .11+    190610 I41  .91-  1.1+    190611 L01  .77-  .70+    
190609 F51  .07+  .34+    190610 I41  1.4+  6.7-    190611 L01  .04-  1.3+    
190609 F51  .18+  .26+    190610 K88  .57-  1.2+    190612 104  .71+  1.4+    
190610 I41  1.8-  2.7+    190610 K88  .18-  .26+    190612 104  .87-  .27-    
190610 I41  .81-  2.5+    190610 K88  .74-  .04-    190612 104  .01+  .95-    
190610 I41  1.2+  .88-    190610 K88  .23-  .38+    190612 104  .04+  1.1-    
190610 I41  .54-  .91+    190611 H21  .67-  .26+    190612 H21  1.1+  .97-    
190610 I41  1.7+  1.0-    190611 H21  .39-  .11+    190612 H21  1.2+  .81-    

Ephemerides (geocentric):
Date (UTC) HH   RA              Dec         delta   r     elong  mag " sig PA
---- -- -- --  -------------   -----------  ------ ------ -----  --- ---- ---
2019 06 19 18  05 35 20.472   +35 31 40.47  .05492 .96257  12.6 33?? .985  18
2019 06 19 19  05 35 17.892   +35 26 42.19  .05521 .96228  12.5 34?? .987  18
2019 06 19 20  05 35 15.347   +35 21 46.92  .05550 .96199  12.4 34?? .989  18
2019 06 19 21  05 35 12.835   +35 16 54.60  .05578 .96170  12.4 34?? 0.99  18
2019 06 19 22  05 35 10.355   +35 12 05.21  .05607 .96141  12.3 34?? 0.99  18
2019 06 19 23  05 35 07.908   +35 07 18.69  .05636 .96112  12.2 34?? 0.99  18
2019 06 20 00  05 35 05.493   +35 02 35.00  .05664 .96083  12.2 34?? 0.99  18
2019 06 20 01  05 35 03.109   +34 57 54.10  .05693 .96054  12.1 34?? 1.00  18
2019 06 20 02  05 35 00.756   +34 53 15.95  .05722 .96025  12.1 34?? 1.00  18
2019 06 20 03  05 34 58.432   +34 48 40.51  .05750 .95996  12.0 34?? 1.00  18
2019 06 20 04  05 34 56.139   +34 44 07.75  .05779 .95967  11.9 34?? 1.00  18
2019 06 20 05  05 34 53.875   +34 39 37.62  .05808 .95938  11.9 34?? 1.00  18
2019 06 20 06  05 34 51.639   +34 35 10.09  .05837 .95909  11.8 34?? 1.00  18
2019 06 20 07  05 34 49.432   +34 30 45.12  .05866 .95880  11.8 34?? 1.00  18
2019 06 20 08  05 34 47.252   +34 26 22.68  .05894 .95851  11.7 34?? 1.01  18
2019 06 20 09  05 34 45.100   +34 22 02.72  .05923 .95822  11.7 34?? 1.01  18
2019 06 20 10  05 34 42.975   +34 17 45.22  .05952 .95793  11.6 34?? 1.01  18
2019 06 20 11  05 34 40.877   +34 13 30.14  .05981 .95764  11.6 34?? 1.01  18
2019 06 20 12  05 34 38.805   +34 09 17.45  .06010 .95735  11.5 34?? 1.01  18
2019 06 20 13  05 34 36.758   +34 05 07.11  .06039 .95706  11.5 34?? 1.01  18
2019 06 20 14  05 34 34.737   +34 00 59.09  .06068 .95677  11.4 34?? 1.01  18
2019 06 20 15  05 34 32.741   +33 56 53.36  .06097 .95648  11.4 35?? 1.01  18
2019 06 20 16  05 34 30.770   +33 52 49.90  .06126 .95619  11.3 35?? 1.01  18
2019 06 20 17  05 34 28.823   +33 48 48.66  .06155 .95590  11.3 35?? 1.02  18
2019 06 20 18  05 34 26.899   +33 44 49.62  .06184 .95561  11.3 35?? 1.02  18
2019 06 20 19  05 34 25.000   +33 40 52.75  .06213 .95532  11.2 35?? 1.02  18
2019 06 20 20  05 34 23.123   +33 36 58.02  .06242 .95503  11.2 35?? 1.02  18
2019 06 20 21  05 34 21.270   +33 33 05.40  .06271 .95474  11.1 35?? 1.02  18
2019 06 20 22  05 34 19.439   +33 29 14.87  .06300 .95445  11.1 35?? 1.02  18
2019 06 20 23  05 34 17.630   +33 25 26.39  .06329 .95416  11.1 35?? 1.02  18
2019 06 21 00  05 34 15.844   +33 21 39.94  .06358 .95387  11.0 35?? 1.02  18
2019 06 21 01  05 34 14.079   +33 17 55.50  .06387 .95358  11.0 35?? 1.02  18
2019 06 21 02  05 34 12.335   +33 14 13.03  .06416 .95329  11.0 35?? 1.03  18
2019 06 21 03  05 34 10.612   +33 10 32.51  .06445 .95300  10.9 35?? 1.03  18
2019 06 21 04  05 34 08.911   +33 06 53.92  .06474 .95271  10.9 35?? 1.03  18
2019 06 21 05  05 34 07.229   +33 03 17.23  .06503 .95242  10.9 35?? 1.03  18
2019 06 21 06  05 34 05.568   +32 59 42.41  .06533 .95213  10.8 35?? 1.03  18
2019 06 21 07  05 34 03.927   +32 56 09.45  .06562 .95184  10.8 35?? 1.03  18
2019 06 21 08  05 34 02.305   +32 52 38.31  .06591 .95155  10.8 35?? 1.03  18
2019 06 21 09  05 34 00.703   +32 49 08.99  .06620 .95126  10.7 35?? 1.03  18
2019 06 21 10  05 33 59.120   +32 45 41.44  .06649 .95097  10.7 35?? 1.03  18
2019 06 21 11  05 33 57.556   +32 42 15.66  .06678 .95068  10.7 35?? 1.03  17
2019 06 21 12  05 33 56.011   +32 38 51.61  .06708 .95039  10.6 35?? 1.03  17
2019 06 21 13  05 33 54.484   +32 35 29.28  .06737 .95010  10.6 35?? 1.03  17
2019 06 21 14  05 33 52.976   +32 32 08.65  .06766 .94981  10.6 35?? 1.03  17
2019 06 21 15  05 33 51.485   +32 28 49.69  .06796 .94952  10.6 35?? 1.04  17
2019 06 21 16  05 33 50.012   +32 25 32.38  .06825 .94923  10.5 35?? 1.04  17
2019 06 21 17  05 33 48.557   +32 22 16.71  .06854 .94894  10.5 35?? 1.04  17